Flag for Canada Weather past 2 weeks in Pond Inlet, Nunavut, Canada

Now
-2 °F

Clear.


Feels Like: -18 °F
Forecast: -11 / 4 °F
Wind: 9 mph from South

Location: Pond Inlet

Current Time: Apr 27, 2015 at 11:59:26 PM

Latest Report: Apr 27, 2015 at 11:00 PM


Visibility: 9 mi

Pressure: 30.27 "Hg

Humidity: 92%

Dew point: -4 °F

Location of Pond InletLocation

Historic Weather in Pond Inlet — Graph

°F

Pond Inlet temperature yesterday

Maximum temperature yesterday: 3 °F (at 3:00 PM)
Minimum temperature yesterday: -8 °F (at 6:00 AM)
Average temperature yesterday: -2 °F

Past Weeks' High & Low Weather Summary

 TemperatureHumidityPressure
High5 °F (Apr 27, 2:00 PM)92% (Apr 24, 3:00 AM)30.94 "Hg (Apr 24, 3:00 AM)
Low-27 °F (Apr 14, 4:00 AM)61% (Apr 13, 1:00 AM)29.38 "Hg (Apr 15, 1:00 AM)
Average-8 °F77%30.06 "Hg
* Reported Apr 12 10:00 PM — Apr 27 10:00 PM, Pond Inlet, Weather by CustomWeather, © 2015

Note: Actual official high and low records may vary slightly from our data, if they occured in-between our weather recording intervals... More about our weather records

Advertising

Pond Inlet weather history for previous 24 hours

 ConditionsComfort  
Time TempWeatherWind HumidityBarometerVisibility
10:00 PM
Mon, Apr 27
0 °FSunny.6 mph92%30.27 "Hg9 mi
9:00 PM0 °FSunny.8 mph78%30.27 "Hg9 mi
8:00 PM1 °FSunny.8 mph85%30.27 "Hg9 mi
7:00 PM3 °FSunny.6 mph85%30.27 "Hg9 mi
6:00 PM5 °FPassing clouds.6 mph78%30.27 "Hg30 mi
5:00 PM5 °FPassing clouds.6 mph85%30.28 "Hg30 mi
4:00 PM5 °FPassing clouds.5 mph85%30.29 "Hg30 mi
3:00 PM5 °FPassing clouds.5 mph85%30.30 "Hg30 mi
2:00 PM5 °FPassing clouds.6 mph85%30.31 "Hg30 mi
1:00 PM3 °FPassing clouds.6 mph85%30.31 "Hg30 mi
12:00 PM1 °FPassing clouds.7 mph85%30.32 "Hg30 mi
11:00 AM0 °FPassing clouds.7 mph84%30.33 "Hg30 mi
10:00 AM0 °FSunny.7 mph84%30.34 "Hg9 mi
9:00 AM0 °FSunny.6 mph78%30.35 "Hg9 mi
8:00 AM-2 °FSunny.8 mph84%30.35 "Hg9 mi
7:00 AM-6 °FSunny.7 mph84%30.36 "Hg9 mi
6:00 AM-6 °FSunny.12 mph77%30.37 "Hg9 mi
5:00 AM-6 °FSunny.6 mph84%30.37 "Hg9 mi
4:00 AM-8 °FSunny.8 mph77%30.38 "Hg9 mi
3:00 AM-6 °FSunny.8 mph77%30.38 "Hg9 mi
2:00 AM-2 °FClear.3 mph77%30.38 "Hg9 mi
1:00 AM-4 °FClear.5 mph77%30.39 "Hg9 mi
12:00 AM-6 °FPartly cloudy.7 mph84%30.39 "Hg9 mi
11:00 PM
Sun, Apr 26
-2 °FClear.5 mph77%30.41 "Hg9 mi
Weather by CustomWeather, © 2015

See weather overviewHow to use our weather pages